Location: Nians�bougou
(13.2321°N, 4.9818°W)
Time: 04:38:42
(UTC+00:00)

Daily predictions for brighter satellites

Satellite Brightness Start Highest point End
(mag) Time Altitude Azimuth Time Altitude Azimuth Time Altitude Azimuth
Aureole 1 Rocket 4.4 04:25:16 49° SSE 04:26:57 65° E 04:34:31 10° NNE
Cosmos 1603 4.3 04:37:03 47° NNE 04:37:03 47° NNE 04:41:05 10° NNE
Cosmos 1943 3.5 04:39:13 34° S 04:41:33 63° ESE 04:47:04 10° NNE
Atlas Centaur 2 3.0 04:42:55 56° SW 04:44:59 83° SSE 04:53:36 10° ENE
Palapa B4 Rocket 4.1 04:45:10 63° NNW 04:45:46 66° NNE 04:54:48 10° E
Lacrosse 4 Rocket 2.8 04:46:05 35° NE 04:46:51 38° ENE 04:50:59 10° SE
Cosmos 1766 Rocket 4.2 04:49:18 53° ESE 04:49:18 53° ESE 04:53:02 10° SSE
USA 267 4.2 04:43:46 10° ESE 04:49:52 43° NE 04:54:32 17° NNW
GPS 2-14 Rocket1 4.0 04:53:28 38° SE 04:53:28 38° SE 04:56:37 10° E
Cosmos 1727 Rocket 4.0 04:49:13 10° S 04:55:27 81° E 05:01:38 10° N
CZ-3 R/B 3.4 04:41:39 32° WNW 04:57:25 89° NNE 05:05:47 10° ESE
STARLINK-1020 4.5 05:02:04 41° NNE 05:02:40 45° NE 05:06:37 10° SE
Fermi 4.3 05:04:43 49° SSE 05:04:50 49° SSE 05:08:45 10° E
STARLINK-1031 3.9 05:05:22 56° NE 05:05:31 57° NE 05:09:22 10° SE
STARLINK-1052 4.2 05:06:50 44° NNE 05:07:37 52° NE 05:11:38 10° SE
Meteor 1-27 4.1 05:11:45 10° SSW 05:17:15 59° W 05:22:43 10° N
STARLINK-1033 3.8 05:16:22 44° NNW 05:17:32 70° NE 05:21:39 10° SE
NATO 3D Rocket 3.6 05:17:00 44° WNW 05:18:24 57° NNW 05:23:08 10° ENE
Cosmos 2084 4.2 05:24:33 36° NW 05:24:33 36° NW 05:28:03 10° N
ARIANE 3 DEB 3.9 05:25:37 17° SSE 05:25:37 17° SSE 05:26:49 10° SE
ATLAS 2A CENTAUR R/B 4.2 05:10:46 25° WNW 05:25:49 73° SSW 05:31:27 10° SE
STARLINK-1024 3.5 05:25:59 38° NW 05:27:30 86° SW 05:31:38 10° SSE
Cosmos 292 Rocket 4.2 05:25:33 10° N 05:30:14 63° ENE 05:34:55 10° SSE
PSLV R/B 3.7 05:26:42 10° N 05:30:25 57° WNW 05:34:15 10° SSW
Cosmos 1825 3.1 05:33:31 29° SW 05:33:31 29° SW 05:35:59 10° SSW
Cosmos 2278 Rocket 4.0 05:34:59 13° SW 05:34:59 13° SW 05:36:04 10° SW
Okean O Rocket 2.7 05:29:16 10° NNE 05:33:26 46° ESE 05:37:34 10° S
ISS -2.1 05:31:18 10° SSW 05:34:22 34° SE 05:37:27 10° ENE
PAYLOAD B 4.3 05:30:21 10° NNE 05:35:53 82° ESE 05:41:24 10° S
STARLINK-1032 3.6 05:35:33 30° NW 05:37:27 63° SW 05:41:32 10° SSE
Cosmos 1743 Rocket 3.9 05:34:58 10° N 05:39:16 67° E 05:43:35 10° SSE
STARLINK-1011 3.7 05:40:20 26° WNW 05:42:24 54° SW 05:46:26 10° SSE
EXPRESS MD2 2.2 05:42:22 36° NNW 05:43:01 60° NE 05:45:09 10° SE
Cosmos 1400 Rocket 3.9 05:40:13 10° SSE 05:43:59 47° E 05:47:48 10° NNE
Cosmos 1954 Rocket 4.0 05:39:37 10° SSW 05:44:51 65° WNW 05:50:07 10° N
SWIFT 3.5 05:43:17 20° NW 05:45:15 30° N 05:49:00 10° ENE
Cosmos 1869 3.7 05:42:06 10° SSW 05:45:52 38° W 05:49:36 10° NNW
STARLINK-1036 3.9 05:45:07 23° WNW 05:47:21 46° SW 05:51:18 10° SSE
Cosmos 1140 Rocket 4.1 05:46:04 10° SW 05:50:42 33° WNW 05:55:22 10° NNW
COSMO-SKYMED 1 2.8 05:47:12 10° SSE 05:51:31 72° ENE 05:55:50 10° N
STARLINK-1044 4.1 05:49:54 20° WNW 05:52:19 40° WSW 05:56:11 10° SSE
NOSS 3-1 (C) 4.3 05:44:18 10° NNW 05:52:45 65° WSW 06:01:33 10° SSE
Delta 142 4.2 05:49:15 19° WNW 05:52:59 69° SSW 05:59:37 10° SE
CZ-3A R/B 4.3 05:52:17 16° W 05:59:41 67° SSW 06:56:19 10° ESE
Cosmos 2221 4.3 06:02:58 12° WNW 06:02:58 12° WNW 06:03:54 10° NW
GPS 2-12 Rocket1 3.1 05:58:46 15° WNW 06:02:42 84° NNE 06:07:21 10° ESE
Aurora 2 Rocket 4.3 06:00:36 10° NW 06:03:39 17° N 06:06:13 10° NNE
ALOS 3.4 06:02:38 10° NNW 06:06:13 22° WNW 06:09:48 10° SW
CZ-3B R/B 2.4 06:06:45 10° SW 06:09:17 53° SSE 06:16:22 10° ENE
Cosmos 1943 Rocket 2.6 06:03:52 10° N 06:09:19 68° ENE 06:14:48 10° SSE
Cosmos 1802 Rocket 4.5 06:05:04 10° N 06:11:27 70° E 06:17:46 10° S
Cosmos 1741 Rocket 4.3 06:07:46 10° S 06:12:57 76° ESE 06:18:10 10° NNE
OAO 3 Rocket 3.3 06:13:19 10° SW 06:18:13 83° SE 06:23:10 10° ENE
ARIANE 44L R/B 4.1 06:18:35 10° WSW 06:21:08 31° S 06:28:16 10° ESE
Helios 1A Rocket 3.0 06:18:24 10° N 06:22:25 54° WNW 06:26:24 10° SSW
Milstar 3 4.3 06:09:59 10° WNW 06:23:27 50° NNE 06:31:05 10° E
GPS 2-18 Rocket1 3.6 06:21:36 10° W 06:25:18 49° SSW 06:29:06 10° SE
